Weather History for KMWM - June, 2012

Change the Weather History Date:

Wednesday, June 20, 2012

  Actual Average Record
Temperature  
Mean Temperature 71 °F -  
Max Temperature 80 °F 81 °F 102 °F (1988)
Min Temperature 60 °F 57 °F 41 °F (1961)
Cooling Degree Days 6    
Growing Degree Days 21 (Base 50)    
Moisture  
Dew Point 64 °F    
Average Humidity 77    
Maximum Humidity 94    
Minimum Humidity 61    
Precipitation  
Precipitation 0.00 in - - ()
Sea Level Pressure  
Sea Level Pressure 29.74 in    
Wind  
Wind Speed 14 mph (SW)    
Max Wind Speed 25 mph    
Max Gust Speed 33 mph    
Visibility 10 miles    
Events Rain , Thunderstorm    
Averages and records for this station are not official NWS values.
T = Trace of Precipitation, MM = Missing Value Source: NWS Daily Summary

Daily Weather History Graph

Daily Weather History Graph

Search for Another Location

Airport or City:

Trip Planner

Search our weather history database for the weather conditions in past years. The results will help you decide how hot, cold, wet, or windy it might be!

Date:

Astronomy

Jun. 20, 2012 Rise Set
Actual Time 5:37 AM CDT 9:06 PM CDT
Civil Twilight 5:01 AM CDT 9:42 PM CDT
Nautical Twilight 4:13 AM CDT 10:30 PM CDT
Astronomical Twilight 3:13 AM CDT 11:31 PM CDT
Moon 6:40 AM CDT (6/20) 9:49 PM CDT (6/20)
Length of Visible Light 16h 41m
Length of Day
15h 28m
New Moon, 1% of the Moon is Illuminated
Jun 20
New Moon
Jun 26
First Quarter
Jul 3
Full
Jul 10
Last Quarter
Jul 18
New

Hourly Weather History & Observations

Time (CDT) Temp. Heat Index Dew Point Humidity Pressure Visibility Wind Dir Wind Speed Gust Speed Precip Events Conditions
12:12 AM 80.6 °F 82.7 °F 66.2 °F 61% 29.67 in 10.0 mi South 19.6 mph 25.3 mph N/A   Clear
12:32 AM 80.6 °F 82.7 °F 66.2 °F 61% 29.66 in 10.0 mi South 18.4 mph 26.5 mph N/A   Clear
12:52 AM 78.8 °F - 66.2 °F 65% 29.65 in 10.0 mi South 21.9 mph 28.8 mph N/A   Clear
1:12 AM 78.8 °F - 66.2 °F 65% 29.65 in 10.0 mi South 19.6 mph 27.6 mph N/A   Clear
1:32 AM 78.8 °F - 66.2 °F 65% 29.64 in 10.0 mi South 19.6 mph 28.8 mph N/A   Clear
1:52 AM 78.8 °F - 66.2 °F 65% 29.65 in 10.0 mi South 20.7 mph 28.8 mph N/A   Clear
2:12 AM 78.8 °F - 66.2 °F 65% 29.65 in 10.0 mi South 16.1 mph 27.6 mph N/A   Clear
2:32 AM 78.8 °F - 66.2 °F 65% 29.66 in 10.0 mi South 16.1 mph 24.2 mph N/A   Clear
2:52 AM 78.8 °F - 66.2 °F 65% 29.66 in 10.0 mi South 16.1 mph 21.9 mph N/A   Mostly Cloudy
3:13 AM 77.0 °F - 66.2 °F 69% 29.66 in 10.0 mi South 11.5 mph 21.9 mph N/A   Overcast
3:32 AM 77.0 °F - 66.2 °F 69% 29.67 in 10.0 mi South 13.8 mph 20.7 mph N/A   Overcast
3:53 AM 75.2 °F - 66.2 °F 73% 29.67 in 10.0 mi South 11.5 mph - N/A   Mostly Cloudy
4:12 AM 75.2 °F - 66.2 °F 73% 29.67 in 10.0 mi South 11.5 mph - N/A   Scattered Clouds
4:32 AM 75.2 °F - 66.2 °F 73% 29.67 in 10.0 mi South 12.7 mph - N/A   Clear
4:52 AM 75.2 °F - 66.2 °F 73% 29.67 in 10.0 mi South 11.5 mph 16.1 mph N/A   Scattered Clouds
5:13 AM 75.2 °F - 66.2 °F 73% 29.68 in 10.0 mi South 11.5 mph - N/A   Scattered Clouds
5:32 AM 75.2 °F - 66.2 °F 73% 29.68 in 10.0 mi South 12.7 mph 17.3 mph N/A   Scattered Clouds
5:52 AM 75.2 °F - 66.2 °F 73% 29.68 in 10.0 mi South 12.7 mph - N/A   Scattered Clouds
6:12 AM 73.4 °F - 66.2 °F 78% 29.68 in 10.0 mi South 10.4 mph 16.1 mph N/A   Scattered Clouds
6:32 AM 73.4 °F - 66.2 °F 78% 29.68 in 10.0 mi South 10.4 mph - N/A   Clear
6:52 AM 75.2 °F - 66.2 °F 73% 29.69 in 10.0 mi South 11.5 mph - N/A   Scattered Clouds
7:12 AM 75.2 °F - 66.2 °F 73% 29.70 in 10.0 mi South 12.7 mph 17.3 mph N/A   Mostly Cloudy
7:32 AM 75.2 °F - 66.2 °F 73% 29.71 in 10.0 mi South 12.7 mph - N/A   Mostly Cloudy
7:52 AM 75.2 °F - 66.2 °F 73% 29.71 in 10.0 mi South 13.8 mph 19.6 mph N/A   Scattered Clouds
8:12 AM 75.2 °F - 68.0 °F 78% 29.72 in 10.0 mi SSW 13.8 mph 20.7 mph N/A   Mostly Cloudy
8:32 AM 66.2 °F - 62.6 °F 88% 29.76 in 7.0 mi NW 17.3 mph 28.8 mph N/A Rain Rain
8:52 AM 64.4 °F - 62.6 °F 94% 29.78 in 7.0 mi NW 16.1 mph 19.6 mph N/A Rain Light Rain
9:12 AM 64.4 °F - 62.6 °F 94% 29.78 in 10.0 mi NNW 16.1 mph 24.2 mph N/A   Drizzle
9:32 AM 64.4 °F - 60.8 °F 88% 29.78 in 10.0 mi NNW 15.0 mph - N/A   Light Drizzle
9:52 AM 64.4 °F - 62.6 °F 94% 29.78 in 10.0 mi NW 11.5 mph 17.3 mph N/A   Overcast
10:12 AM 64.4 °F - 60.8 °F 88% 29.78 in 10.0 mi North 15.0 mph - N/A   Overcast
10:32 AM 64.4 °F - 62.6 °F 94% 29.79 in 10.0 mi NNW 10.4 mph - N/A   Overcast
10:53 AM 64.4 °F - 60.8 °F 88% 29.79 in 10.0 mi North 11.5 mph - N/A   Overcast
11:12 AM 64.4 °F - 60.8 °F 88% 29.79 in 10.0 mi North 12.7 mph - N/A   Overcast
11:32 AM 66.2 °F - 60.8 °F 83% 29.80 in 10.0 mi North 10.4 mph - N/A   Overcast
12:12 PM 69.8 °F - 60.8 °F 73% 29.79 in 10.0 mi NNE 9.2 mph - N/A   Scattered Clouds
12:32 PM 69.8 °F - 60.8 °F 73% 29.79 in 10.0 mi NE 8.1 mph - N/A   Clear
12:53 PM 69.8 °F - 62.6 °F 78% 29.79 in 10.0 mi ENE 5.8 mph - N/A Rain Light Rain
1:12 PM 69.8 °F - 62.6 °F 78% 29.78 in 10.0 mi East 4.6 mph - N/A Thunderstorm Scattered Clouds
1:32 PM 69.8 °F - 60.8 °F 73% 29.80 in 10.0 mi Calm Calm - N/A   Mostly Cloudy
1:46 PM 69.8 °F - 60.8 °F 73% 29.80 in 10.0 mi Calm Calm - N/A Rain , Thunderstorm Light Thunderstorms and Rain
2:12 PM 71.6 °F - 62.6 °F 73% 29.79 in 10.0 mi Calm Calm - N/A Thunderstorm Scattered Clouds
2:32 PM 71.6 °F - 62.6 °F 73% 29.79 in 10.0 mi Calm Calm - N/A   Scattered Clouds
2:52 PM 73.4 °F - 62.6 °F 69% 29.82 in 10.0 mi NW 9.2 mph - N/A   Mostly Cloudy
2:55 PM 73.4 °F - 62.6 °F 69% 29.82 in 10.0 mi NNW 13.8 mph - N/A   Mostly Cloudy
4:21 PM 69.8 °F - 62.6 °F 78% 29.81 in 10.0 mi NNW 25.3 mph 33.4 mph N/A   Mostly Cloudy
6:27 PM 64.4 °F - 60.8 °F 88% 29.85 in 7.0 mi NNW 10.4 mph - N/A   Overcast
7:26 PM 62.6 °F - 60.8 °F 94% 29.85 in 10.0 mi NNW 8.1 mph - N/A   Overcast
8:29 PM 62.6 °F - 60.8 °F 94% 29.90 in 10.0 mi WNW 3.5 mph - N/A   Scattered Clouds
8:41 PM 62.6 °F - 60.8 °F 94% 29.90 in 10.0 mi SSW 1.2 mph - N/A   Clear
10:41 PM 60.8 °F - 57.2 °F 88% 29.93 in 10.0 mi SW 5.8 mph - N/A   Clear